[[{"header":{"parameterUnit":"m.s-1","parameterCategory":1,"la1":30.2991,"la2":30.254,"lo1":-89.0895,"lo2":-89.0444,"dy":0.0017,"dx":0.0017,"nx":28,"ny":28,"refTime":"2023-09-02T09:00:00:Z","depth":0,"parameterNumber":2,"parameterNumberName":"U-component_of_WINDS"},"data":[0,0,0,0,0,0,0,0,0,0,0,0,0,0,0,0,0,0,0,0,0,0,0,0,0,0,0,0,0,0,0,0,0,0,0,0,0,0,0,0,0,0,0,0,0,0,0,0,0,0,0,0,0,0,0,0,0,0,-0.7877,-0.7876,0,-0.7805,-0.7804,-0.7803,-0.7814,-0.7816,-0.7817,-0.7818,-0.7741,-0.7738,-0.7734,0,0,0,0,0,0,0,0,0,0,0,0,0,-0.8018,-0.8016,-0.7877,-0.7876,-0.7875,-0.7805,-0.7804,-0.7803,-0.7814,-0.7816,-0.7817,-0.7818,-0.7742,-0.7738,-0.7734,0,0,0,0,0,0,0,0,0,0,0,0,0,-0.7953,-0.8015,-0.7877,-0.7872,-0.7871,-0.7805,-0.7804,-0.7803,-0.7814,-0.7816,-0.7817,-0.7819,-0.7743,-0.7738,-0.7734,-0.7667,0,0,-0.7719,-0.7717,0,0,0,0,0,0,0,0,-0.7956,-0.7947,-0.7874,-0.7872,-0.7871,-0.7821,-0.7826,-0.7757,-0.7813,-0.7835,-0.7818,-0.782,-0.7766,-0.7759,-0.7741,-0.7664,-0.766,-0.7719,-0.7716,-0.7714,-0.7712,0,0,0,0,0,0,0,-0.7961,-0.7951,-0.7848,-0.7872,-0.7871,-0.7872,-0.7865,-0.7813,-0.7791,-0.7834,-0.7834,-0.7826,-0.7765,-0.7746,-0.774,-0.7659,-0.7719,-0.7714,-0.7711,-0.771,-0.7522,-0.752,0,0,0,0,0,0,-0.7967,-0.7954,-0.785,-0.7846,-0.7919,-0.7868,-0.786,-0.7835,-0.7791,-0.7787,-0.7824,-0.7827,-0.7753,-0.7745,-0.7737,-0.7656,-0.7714,-0.7709,-0.7706,-0.7524,-0.7521,-0.7519,0,0,0,0,0,0,-0.797,-0.7958,-0.7853,-0.79,-0.7887,-0.7864,-0.7835,-0.7832,-0.7813,-0.7785,-0.778,-0.7809,-0.7754,-0.7744,-0.7684,-0.7653,-0.7707,-0.7703,-0.7526,-0.7523,-0.752,-0.7493,0,0,0,0,0,0,-0.7974,-0.7959,-0.7935,-0.79,-0.7885,-0.7803,-0.7833,-0.783,-0.7806,-0.7808,-0.7769,-0.7764,-0.7755,-0.7692,-0.768,-0.7647,-0.7699,-0.7529,-0.7525,-0.7521,-0.7496,-0.7489,-0.7483,0,0,0,0,0,-0.7979,-0.7929,-0.7933,-0.7921,-0.7854,-0.7801,-0.7793,-0.7784,-0.7803,-0.7777,-0.7759,-0.7766,-0.7659,-0.7685,-0.7672,-0.7638,-0.7531,-0.7526,-0.7522,-0.7499,-0.749,-0.7483,0,0,0,0,0,0,-0.796,-0.7925,-0.7929,-0.7866,-0.7837,-0.7803,-0.7771,-0.7775,-0.7739,-0.7742,-0.7732,-0.7723,-0.7663,-0.7644,-0.7675,-0.7571,-0.7597,-0.759,-0.7585,-0.7576,-0.7569,-0.7575,-0.7695,0,0,0,0,0,-0.7949,-0.791,-0.7881,-0.7828,-0.7813,-0.7795,-0.7772,-0.7768,-0.7736,-0.7724,-0.7701,-0.7669,-0.7628,-0.7601,-0.7562,-0.7494,-0.7485,-0.7464,-0.7457,-0.7451,-0.7445,-0.7406,-0.7396,-0.7503,-0.7503,-0.7504,0,0,-0.7924,-0.79,-0.7876,-0.7824,-0.7801,-0.776,-0.7784,-0.774,-0.7709,-0.7716,-0.7659,-0.7641,-0.7605,-0.7541,-0.7511,-0.7523,-0.7413,-0.7445,-0.7441,-0.7437,-0.74,-0.739,-0.7381,-0.75,-0.7501,-0.7501,0,0,-0.7859,-0.7837,-0.7791,-0.7767,-0.7732,-0.772,-0.7709,-0.7674,-0.7663,-0.7606,-0.761,-0.7572,-0.7502,-0.7476,-0.7453,-0.7377,-0.7382,-0.7365,-0.7329,-0.7291,-0.7283,-0.7275,-0.7247,-0.7237,-0.7358,-0.7358,-0.7358,0,-0.7832,-0.7773,-0.7766,-0.7721,-0.7697,-0.7703,-0.7655,-0.7632,-0.7585,-0.7567,-0.7583,-0.7494,-0.747,-0.7399,-0.7381,-0.7363,-0.7348,-0.7369,-0.7285,-0.7277,-0.727,-0.7243,-0.7232,-0.7356,-0.7356,-0.7357,-0.7357,0,-0.7741,-0.7699,-0.7666,-0.7622,-0.7594,-0.7548,-0.7532,-0.7505,-0.7503,-0.7489,-0.7429,-0.7401,-0.7355,-0.7338,-0.7336,-0.7267,-0.7275,-0.7288,-0.7314,-0.7258,-0.7232,-0.7222,-0.7354,-0.7354,-0.7355,-0.7355,0,0,-0.7662,-0.7614,-0.7602,-0.7582,-0.7543,-0.751,-0.7463,-0.742,-0.7396,-0.7363,-0.7323,-0.7263,-0.7274,-0.7249,-0.7243,-0.721,-0.715,-0.7226,-0.7225,-0.7212,-0.707,-0.7061,-0.7049,-0.7153,-0.7151,-0.7149,-0.7073,0,-0.7592,-0.7511,-0.7503,-0.743,-0.739,-0.7394,-0.7353,-0.7324,-0.731,-0.7273,-0.7256,-0.7213,-0.7232,-0.7216,-0.7184,-0.7164,-0.7121,-0.717,-0.7114,-0.7112,-0.7122,-0.7036,-0.7026,-0.6955,-0.7063,-0.7061,-0.706,0,-0.75,-0.7465,-0.7388,-0.7355,-0.7338,-0.7301,-0.726,-0.7226,-0.7192,-0.7184,-0.7155,-0.7153,-0.7103,-0.7132,-0.7062,-0.7095,-0.7072,-0.7059,-0.7056,-0.7049,-0.7082,-0.7026,-0.6932,-0.6921,-0.7044,-0.7046,-0.7047,0,-0.7448,-0.7382,-0.7328,-0.731,-0.727,-0.7244,-0.7225,-0.7194,-0.7168,-0.7132,-0.7115,-0.7073,-0.705,-0.7016,-0.7003,-0.7025,-0.6933,-0.6961,-0.6923,-0.6924,-0.6903,-0.6905,-0.6803,-0.689,-0.689,-0.689,-0.689,0,-0.737,-0.7323,-0.7304,-0.727,-0.7216,-0.7207,-0.7154,-0.7136,-0.7108,-0.707,-0.7071,-0.7034,-0.702,-0.698,-0.6969,-0.6912,-0.6902,-0.6893,-0.689,-0.6892,-0.6893,-0.6876,-0.688,-0.6887,-0.6888,-0.6888,-0.6889,0,-0.7304,-0.7289,-0.723,-0.7196,-0.7186,-0.7148,-0.7119,-0.7085,-0.7071,-0.7022,-0.701,-0.6987,-0.6941,-0.6925,-0.6868,-0.6861,-0.6794,-0.6796,-0.6806,-0.6805,-0.6768,-0.6771,-0.6651,-0.6635,-0.6733,-0.6732,-0.6731,0,-0.7255,-0.7218,-0.7181,-0.7156,-0.7137,-0.7097,-0.7071,-0.706,-0.7032,-0.6991,-0.6962,-0.6916,-0.6879,-0.6805,-0.6782,-0.6738,-0.6739,-0.67,-0.6732,-0.6735,-0.6737,-0.6739,-0.6735,-0.6693,-0.6692,-0.6692,-0.6691,0,-0.7169,-0.7164,-0.7127,-0.7087,-0.7056,-0.7023,-0.6992,-0.6971,-0.6955,-0.6923,-0.6877,-0.6848,-0.6791,-0.6745,-0.67,-0.668,-0.6682,-0.6681,-0.667,-0.6671,-0.6678,-0.6672,-0.6789,-0.6684,-0.6684,-0.6685,-0.6685,-0.6686,-0.7109,-0.7077,-0.7045,-0.7003,-0.6979,-0.6949,-0.6916,-0.6898,-0.6859,-0.6812,-0.6808,-0.6757,-0.6723,-0.6664,-0.6641,-0.66,-0.6611,-0.6595,-0.659,-0.6586,-0.6583,-0.6685,-0.6592,-0.6592,-0.6592,-0.6593,-0.6593,0,-0.7023,-0.7003,-0.6965,-0.6921,-0.6888,-0.6894,-0.6859,-0.6831,-0.6786,-0.6755,-0.6719,-0.6665,-0.662,-0.6594,-0.6548,-0.6521,-0.652,-0.6509,-0.6511,-0.6505,-0.6577,-0.6591,-0.651,-0.651,-0.651,-0.651,-0.651,-0.651,-0.6974,-0.6919,-0.691,-0.6842,-0.6822,-0.6773,-0.6752,-0.6725,-0.67,-0.6639,-0.6603,-0.6586,-0.6556,-0.6509,-0.6468,-0.6461,-0.6444,-0.6431,-0.6425,-0.6492,-0.6501,-0.6509,-0.6522,-0.6428,-0.6428,-0.6357,-0.6356,-0.6356]},{"header":{"parameterUnit":"m.s-1","parameterCategory":1,"la1":30.2991,"la2":30.254,"lo1":-89.0895,"lo2":-89.0444,"dy":0.0017,"dx":0.0017,"nx":28,"ny":28,"refTime":"2023-09-02T09:00:00:Z","depth":0,"parameterNumber":3,"parameterNumberName":"V-component_of_WINDS"},"data":[0,0,0,0,0,0,0,0,0,0,0,0,0,0,0,0,0,0,0,0,0,0,0,0,0,0,0,0,0,0,0,0,0,0,0,0,0,0,0,0,0,0,0,0,0,0,0,0,0,0,0,0,0,0,0,0,0,0,0.3412,0.341,0,0.3211,0.3209,0.3207,0.3049,0.3047,0.3046,0.3044,0.2841,0.2837,0.2833,0,0,0,0,0,0,0,0,0,0,0,0,0,0.3661,0.3657,0.3412,0.341,0.3407,0.3212,0.3209,0.3206,0.3049,0.3047,0.3045,0.3044,0.2842,0.2837,0.2833,0,0,0,0,0,0,0,0,0,0,0,0,0,0.3516,0.3656,0.3413,0.3305,0.3294,0.3212,0.3209,0.3206,0.305,0.3047,0.3045,0.3043,0.2844,0.2838,0.2832,0.2842,0,0,0.2814,0.2811,0,0,0,0,0,0,0,0,0.3525,0.3507,0.3324,0.3313,0.3299,0.3153,0.3222,0.3084,0.305,0.3142,0.3044,0.3042,0.2947,0.2932,0.2899,0.2832,0.2823,0.2813,0.2809,0.2807,0.2805,0,0,0,0,0,0,0,0.3535,0.3515,0.3333,0.3321,0.3306,0.3268,0.3244,0.3195,0.306,0.3134,0.3122,0.31,0.2939,0.2906,0.2894,0.282,0.2813,0.2808,0.2804,0.2802,0.275,0.2752,0,0,0,0,0,0,0.3561,0.3524,0.3339,0.3327,0.3408,0.3265,0.3239,0.3202,0.306,0.3036,0.3103,0.3094,0.2917,0.2901,0.2886,0.2886,0.2807,0.2801,0.2798,0.2748,0.275,0.2753,0,0,0,0,0,0,0.3567,0.3546,0.3347,0.3422,0.3394,0.3263,0.3223,0.32,0.3165,0.3036,0.3012,0.3093,0.2914,0.2894,0.2853,0.2877,0.2799,0.2793,0.2745,0.2748,0.2751,0.289,0,0,0,0,0,0,0.3575,0.3549,0.3552,0.3423,0.3391,0.3318,0.3225,0.3197,0.3155,0.3142,0.302,0.2998,0.2911,0.2863,0.2848,0.2868,0.2789,0.2742,0.2747,0.275,0.2882,0.2897,0.291,0,0,0,0,0,0.3585,0.3599,0.3552,0.3531,0.339,0.332,0.3301,0.32,0.3158,0.3159,0.3076,0.3002,0.2878,0.286,0.2841,0.286,0.274,0.2745,0.275,0.2876,0.2894,0.291,0,0,0,0,0,0,0.3734,0.358,0.3527,0.35,0.3424,0.3294,0.3292,0.3223,0.3158,0.3148,0.3026,0.3,0.2972,0.2912,0.2896,0.2862,0.2799,0.2801,0.2902,0.2918,0.2931,0.2946,0.2784,0,0,0,0,0,0.3764,0.3719,0.3587,0.3577,0.3541,0.3424,0.3389,0.3318,0.3235,0.3202,0.3116,0.3038,0.2981,0.2946,0.2887,0.2873,0.2844,0.2877,0.2891,0.2903,0.2905,0.2892,0.2905,0.2769,0.2769,0.2769,0,0,0.3825,0.3736,0.3715,0.3605,0.3537,0.3494,0.3398,0.3356,0.3322,0.3196,0.3151,0.3086,0.2991,0.2964,0.2947,0.2913,0.2936,0.2909,0.292,0.2915,0.2898,0.2911,0.2923,0.2772,0.2772,0.2771,0,0,0.3914,0.3842,0.3825,0.3759,0.3658,0.358,0.3576,0.3455,0.3406,0.336,0.3264,0.3223,0.3128,0.3063,0.3019,0.3084,0.3013,0.3068,0.314,0.3129,0.3139,0.3148,0.317,0.318,0.3071,0.3071,0.3072,0,0.4003,0.3933,0.3825,0.3788,0.3742,0.3625,0.3606,0.3548,0.3434,0.3405,0.3368,0.3245,0.3174,0.3129,0.3145,0.3113,0.3104,0.3081,0.3147,0.3154,0.3161,0.318,0.3189,0.3079,0.3078,0.3077,0.3076,0,0.4046,0.3999,0.3997,0.3889,0.3843,0.3816,0.3704,0.367,0.3604,0.353,0.3484,0.3393,0.3313,0.3298,0.3232,0.3243,0.3225,0.3169,0.3104,0.3183,0.3199,0.3206,0.3089,0.3086,0.3084,0.3083,0,0,0.4222,0.4054,0.4055,0.4004,0.3884,0.3846,0.3814,0.3735,0.3708,0.3634,0.3603,0.3525,0.3472,0.3422,0.3348,0.3339,0.3395,0.3283,0.3279,0.3306,0.34,0.3442,0.3453,0.3348,0.3349,0.335,0.3408,0,0.4291,0.4225,0.4127,0.4094,0.4049,0.3937,0.3909,0.3833,0.3763,0.3715,0.3638,0.3584,0.3519,0.3488,0.3473,0.3391,0.3412,0.3386,0.3318,0.3316,0.3343,0.3461,0.3505,0.3564,0.3414,0.3415,0.3415,0,0.4362,0.4292,0.4255,0.4137,0.4115,0.4091,0.401,0.3966,0.3877,0.3827,0.3771,0.3691,0.3651,0.3594,0.3537,0.3522,0.3488,0.3444,0.3443,0.3432,0.337,0.3452,0.3581,0.3589,0.3424,0.3424,0.3423,0,0.4492,0.439,0.4353,0.4313,0.4176,0.4162,0.4104,0.4013,0.3972,0.3902,0.3874,0.3801,0.3761,0.3706,0.3609,0.3576,0.3562,0.3497,0.3519,0.3522,0.352,0.3521,0.3644,0.3502,0.3501,0.3501,0.3501,0,0.4578,0.4559,0.4409,0.4387,0.4363,0.4251,0.423,0.4162,0.4082,0.4045,0.3945,0.3912,0.3786,0.3739,0.3663,0.3626,0.361,0.3568,0.3547,0.3575,0.3581,0.3551,0.3544,0.3503,0.3503,0.3503,0.3502,0,0.4719,0.4618,0.4571,0.4445,0.4413,0.44,0.4293,0.4267,0.4191,0.4145,0.4128,0.401,0.3949,0.3847,0.3757,0.3705,0.3683,0.365,0.3713,0.37,0.3728,0.3726,0.3835,0.3843,0.3698,0.3699,0.3701,0,0.4779,0.4761,0.4634,0.4601,0.4547,0.4496,0.4453,0.4343,0.4302,0.42,0.4187,0.4118,0.4056,0.3964,0.3871,0.3801,0.3764,0.3807,0.3753,0.3782,0.3763,0.3765,0.3762,0.3819,0.3821,0.3823,0.3825,0,0.4897,0.4848,0.4789,0.4713,0.4665,0.46,0.453,0.4509,0.4383,0.4343,0.4279,0.4232,0.4139,0.4072,0.3989,0.393,0.3856,0.3843,0.3844,0.3872,0.3908,0.3887,0.3745,0.384,0.3839,0.3837,0.3837,0.3836,0.4997,0.4976,0.4883,0.4821,0.4757,0.4694,0.4663,0.4584,0.4528,0.4444,0.4382,0.4323,0.4234,0.4115,0.406,0.4012,0.3979,0.3981,0.3981,0.3983,0.3993,0.3918,0.3997,0.3996,0.3995,0.3995,0.3995,0,0.5108,0.5043,0.4987,0.4892,0.4844,0.4779,0.4698,0.4662,0.461,0.4534,0.4476,0.4402,0.4336,0.4238,0.4164,0.4145,0.4109,0.4129,0.4129,0.4116,0.4028,0.4033,0.4159,0.4159,0.4159,0.4159,0.4159,0.4159,0.516,0.512,0.5061,0.4989,0.4923,0.4863,0.4823,0.4764,0.4702,0.4625,0.4569,0.4505,0.442,0.4339,0.4276,0.4249,0.4226,0.4256,0.4219,0.4138,0.4122,0.4108,0.4112,0.4253,0.4253,0.431,0.4311,0.4311]}]]